Home > Weather > Corvallis > Past weeks

Flag for USA Past Weather in Corvallis, Oregon, USA — Yesterday and Last 2 Weeks

Now
59 °F

Cool.


Feels Like: 58 °F
Forecast: 58 / 85 °F
Wind: 8 mph from Northwest

Location: Corvallis Municipal

Current Time: Jul 25, 2016 at 6:59:22 AM

Latest Report: Jul 25, 2016 at 6:35 AM


Visibility: 10 mi

Pressure: 30.09 "Hg

Humidity: 88%

Dew Point: 55 °F

Location of CorvallisLocation

Past Weather in Corvallis — Graph

°F

Corvallis Temperature Yesterday

Maximum temperature yesterday: 90 °F (at 4:15 PM)
Minimum temperature yesterday: 54 °F (at 4:55 AM)
Average temperature yesterday: 69 °F

High & Low Weather Summary for the Past Weeks

 TemperatureHumidityPressure
High90 °F (Jul 24, 4:15 PM)94% (Jul 10, 5:15 AM)30.31 "Hg (Jul 10, 5:15 AM)
Low48 °F (Jul 20, 6:15 AM)29% (Jul 14, 2:15 PM)29.96 "Hg (Jul 17, 4:15 PM)
Average66 °F65%30.12 "Hg
* Reported Jul 10 5:15 AM — Jul 25 5:35 AM, Corvallis, Weather by CustomWeather, © 2016

Note: Actual official high and low records may vary slightly from our data, if they occured in-between our weather recording intervals... More about our weather records

Advertising

Corvallis Weather History for the Previous 24 Hours

Scroll right to see more
 ConditionsComfort  
Time TempWeatherWind HumidityBarometerVisibility
5:35 AM
Mon, Jul 25
59 °FCool.10 mph88%30.08 "Hg10 mi
5:15 AM59 °FCool.10 mph82%30.08 "Hg10 mi
4:55 AM59 °FCool.10 mph88%30.07 "Hg10 mi
4:35 AM59 °FCool.14 mph82%30.06 "Hg10 mi
4:15 AM59 °FCool.16 mph82%30.06 "Hg10 mi
3:55 AM59 °FCool.13 mph88%30.05 "Hg10 mi
3:35 AM59 °FCool.14 mph88%30.05 "Hg10 mi
3:15 AM61 °FCool.9 mph83%30.05 "Hg10 mi
2:55 AM61 °FCool.9 mph77%30.04 "Hg10 mi
2:35 AM61 °FCool.10 mph83%30.04 "Hg10 mi
2:15 AM61 °FCool.13 mph77%30.04 "Hg10 mi
1:55 AM61 °FCool.13 mph77%30.03 "Hg10 mi
1:35 AM61 °FCool.15 mph77%30.03 "Hg10 mi
1:15 AM61 °FCool.16 mph77%30.03 "Hg10 mi
12:55 AM61 °FCool.15 mph83%30.03 "Hg10 mi
12:35 AM61 °FCool.17 mph83%30.02 "Hg10 mi
12:15 AM61 °FCool.17 mph83%30.02 "Hg10 mi
11:55 PM
Sun, Jul 24
63 °FMild.18 mph77%30.02 "Hg10 mi
11:35 PM63 °FMild.16 mph77%30.02 "Hg10 mi
11:15 PM63 °FMild.15 mph77%30.01 "Hg10 mi
10:55 PM63 °FMild.16 mph77%30.00 "Hg10 mi
10:35 PM64 °FMild.18 mph73%29.99 "Hg10 mi
10:15 PM64 °FMild.18 mph73%29.99 "Hg10 mi
9:55 PM66 °FMild.18 mph68%29.99 "Hg10 mi
9:35 PM66 °FMild.16 mph68%29.98 "Hg10 mi
9:15 PM68 °FMild.20 mph64%29.97 "Hg10 mi
8:55 PM70 °FMild.20 mph64%29.97 "Hg10 mi
8:35 PM72 °FMild.20 mph61%29.97 "Hg10 mi
8:15 PM73 °FMild.18 mph57%29.97 "Hg10 mi
7:55 PM75 °FMild.17 mph54%29.97 "Hg10 mi
7:35 PM79 °FWarm.17 mph48%29.97 "Hg10 mi
7:15 PM81 °FWarm.16 mph45%29.96 "Hg10 mi
6:55 PM82 °FWarm.13 mph45%29.96 "Hg10 mi
6:35 PM82 °FWarm.15 mph45%29.96 "Hg10 mi
5:55 PM84 °FWarm.14 mph43%29.97 "Hg10 mi
5:35 PM86 °FWarm.13 mph40%29.96 "Hg10 mi
5:15 PM88 °FPleasantly warm.14 mph38%29.97 "Hg10 mi
4:55 PM88 °FPleasantly warm.12 mph38%29.97 "Hg10 mi
4:35 PM90 °FHot.9 mph29%29.97 "Hg10 mi
4:15 PM90 °FHot.13 mph29%29.97 "Hg10 mi
3:55 PM88 °FPleasantly warm.9 mph31%29.98 "Hg8 mi
3:35 PM88 °FPleasantly warm.5 mph31%29.99 "Hg10 mi
3:15 PM88 °FPleasantly warm.9 mph31%29.99 "Hg10 mi
2:55 PM84 °FPleasantly warm.6 mph35%30.00 "Hg9 mi
2:35 PM84 °FPleasantly warm.7 mph35%30.01 "Hg10 mi
2:15 PM84 °FPleasantly warm.7 mph35%30.02 "Hg10 mi
1:55 PM84 °FPleasantly warm.7 mph35%30.02 "Hg9 mi
1:35 PM81 °FPleasantly warm.6 mph39%30.03 "Hg10 mi
1:15 PM81 °FPleasantly warm.7 mph39%30.04 "Hg10 mi
12:55 PM81 °FPleasantly warm.8 mph39%30.04 "Hg10 mi
12:35 PM79 °FWarm.8 mph42%30.05 "Hg10 mi
12:15 PM77 °FWarm.6 mph44%30.06 "Hg10 mi
11:55 AM77 °FWarm.10 mph44%30.06 "Hg10 mi
11:35 AM75 °FMild.6 mph47%30.07 "Hg10 mi
11:15 AM75 °FMild.7 mph47%30.08 "Hg10 mi
10:55 AM72 °FMild.8 mph53%30.08 "Hg10 mi
10:35 AM72 °FMild.9 mph53%30.08 "Hg10 mi
10:15 AM72 °FMild.8 mph53%30.08 "Hg10 mi
9:55 AM70 °FMild.7 mph57%30.09 "Hg10 mi
9:35 AM68 °FMild.8 mph60%30.10 "Hg10 mi
9:15 AM66 °FMild.9 mph64%30.10 "Hg10 mi
8:55 AM64 °FMild.8 mph68%30.10 "Hg10 mi
8:35 AM64 °FMild.9 mph68%30.11 "Hg10 mi
7:55 AM61 °FCool.3 mph77%30.11 "Hg10 mi
7:35 AM59 °FCool.3 mph82%30.11 "Hg10 mi
7:15 AM57 °FCool.3 mph82%30.11 "Hg10 mi
6:55 AM55 °FCool.5 mph88%30.11 "Hg10 mi
6:35 AM54 °FCool.6 mph88%30.11 "Hg10 mi
6:15 AM54 °FCool.6 mph82%30.11 "Hg10 mi
Weather by CustomWeather, © 2016

See weather overviewHow to use our weather pages